TimeADT,TemperatureF,Dew PointF,Humidity,Sea Level PressureIn,VisibilityMPH,Wind Direction,Wind SpeedMPH,Gust SpeedMPH,PrecipitationIn,Events,Conditions,WindDirDegrees,DateUTC
12:00 AM,39.2,39.2,100,30.49,10.0,SE,11.5,-,N/A,Rain,Light Rain,130,2013-04-24 03:00:00
1:00 AM,39.2,37.4,93,30.45,10.0,ESE,11.5,18.4,N/A,Rain,Light Rain,110,2013-04-24 04:00:00
2:00 AM,37.4,37.4,100,30.43,10.0,East,10.4,-,N/A,Rain,Light Rain,100,2013-04-24 05:00:00
2:23 AM,37.4,37.4,100,30.42,10.0,East,10.4,-,N/A,Rain,Light Rain,100,2013-04-24 05:23:00
3:00 AM,38,38,99,30.39,10,East,9.2,,,Rain,Light Rain,80,2013-04-24 06:00:00
3:00 AM,37.4,37.4,100,30.39,10.0,East,10.4,-,N/A,Rain,Light Rain,90,2013-04-24 06:00:00
4:00 AM,39.2,39.2,100,30.35,10.0,East,11.5,-,N/A,Rain,Light Rain,90,2013-04-24 07:00:00
5:00 AM,39.2,39.2,100,30.31,10.0,East,12.7,-,N/A,Rain,Light Rain,90,2013-04-24 08:00:00
6:00 AM,41.0,41.0,100,30.28,8.0,ESE,13.8,-,N/A,Rain,Light Rain,110,2013-04-24 09:00:00
7:00 AM,42.8,42.8,100,30.27,15.0,ESE,15.0,-,N/A,,Light Drizzle,120,2013-04-24 10:00:00
8:00 AM,42.8,42.8,100,30.27,12.0,ESE,13.8,-,N/A,,Light Drizzle,120,2013-04-24 11:00:00
9:00 AM,45,45,100,30.27,12,ESE,13.8,,,Rain,Light Drizzle,120,2013-04-24 12:00:00
9:00 AM,44.6,44.6,100,30.26,12.0,ESE,12.7,-,N/A,,Overcast,120,2013-04-24 12:00:00
10:00 AM,46.4,46.4,100,30.24,10.0,SE,15.0,23.0,N/A,,Overcast,130,2013-04-24 13:00:00
10:25 AM,48.2,46.4,93,30.24,10.0,SE,16.1,-,N/A,,Light Drizzle,130,2013-04-24 13:25:00
10:48 AM,48.2,48.2,100,30.23,12.0,SE,15.0,-,N/A,,Overcast,130,2013-04-24 13:48:00
11:00 AM,50.0,48.2,94,30.23,12.0,SE,13.8,20.7,N/A,,Overcast,130,2013-04-24 14:00:00
12:00 PM,51.8,50.0,94,30.22,10.0,SE,15.0,23.0,N/A,,Overcast,130,2013-04-24 15:00:00
12:08 PM,51.8,50.0,94,30.21,8.0,SE,15.0,23.0,N/A,Rain,Light Rain,130,2013-04-24 15:08:00
12:44 PM,51.8,51.8,100,30.19,12.0,SE,16.1,21.9,N/A,,Overcast,130,2013-04-24 15:44:00
1:00 PM,53.6,51.8,94,30.18,12.0,SE,17.3,25.3,N/A,,Overcast,140,2013-04-24 16:00:00
2:00 PM,53.6,53.6,100,30.16,10.0,SE,19.6,26.5,N/A,,Overcast,140,2013-04-24 17:00:00
3:00 PM,57,55,92,30.12,12,SE,18.4,,,,Partly Cloudy,140,2013-04-24 18:00:00
3:00 PM,57.2,55.4,94,30.12,12.0,SE,18.4,28.8,N/A,,Overcast,140,2013-04-24 18:00:00
4:00 PM,57.2,55.4,94,30.09,12.0,SE,23.0,-,N/A,,Overcast,140,2013-04-24 19:00:00
4:44 PM,57.2,55.4,94,30.07,12.0,SSE,23.0,29.9,N/A,,Overcast,150,2013-04-24 19:44:00
5:00 PM,57.2,55.4,94,30.06,12.0,SSE,20.7,31.1,N/A,,Overcast,150,2013-04-24 20:00:00
5:43 PM,57.2,53.6,88,30.06,12.0,SSE,20.7,32.2,N/A,,Light Drizzle,150,2013-04-24 20:43:00
5:55 PM,57.2,53.6,88,30.05,12.0,SE,19.6,27.6,N/A,Rain,Light Rain,140,2013-04-24 20:55:00
6:00 PM,55.4,53.6,94,30.05,12.0,SE,20.7,28.8,N/A,Rain,Light Rain,140,2013-04-24 21:00:00
7:00 PM,55.4,53.6,94,30.02,12.0,SSE,20.7,29.9,N/A,Rain,Light Rain,150,2013-04-24 22:00:00
8:00 PM,55.4,53.6,94,29.99,12.0,SSE,26.5,34.5,N/A,Rain,Light Rain Showers,150,2013-04-24 23:00:00
9:00 PM,55,53,92,29.98,12,SSE,24.2,,,Rain,Light Rain Showers,150,2013-04-25 00:00:00
9:00 PM,55.4,53.6,94,29.98,12.0,SSE,24.2,39.1,N/A,Rain,Light Rain Showers,150,2013-04-25 00:00:00
9:22 PM,53.6,53.6,100,29.98,12.0,SSE,26.5,39.1,N/A,,Overcast,150,2013-04-25 00:22:00
9:31 PM,53.6,53.6,100,29.98,8.0,SSE,26.5,39.1,N/A,Rain,Light Rain Showers,150,2013-04-25 00:31:00
10:00 PM,53.6,53.6,100,29.98,10.0,SSE,24.2,34.5,N/A,Rain,Light Rain Showers,150,2013-04-25 01:00:00